Location: Zagreb
(45.8000°N, 16.0000°E)
Time: 20:03:28
(UTC+01:00)

Oscar 11 - Pass Details

Date: 01 November 2020
Orbit: 613 x 625 km, 97.6° (Epoch: 01 December)

Event Time Altitude Azimuth Distance (km) Brightness Sun altitude
Rises 18:13:06 0° 196° (SSW) 2,883 10.8 -16.3°
Reaches altitude 10° 18:15:35 10° 209° (SSW) 1,980 10.1 -16.7°
Maximum altitude 18:19:11 26° 266° (W) 1,238 9.5 -17.4°
Drops below altitude 10° 18:22:48 10° 323° (NW) 1,988 10.1 -18.0°
Sets 18:25:18 0° 336° (NNW) 2,897 10.8 -18.4°
